sat.trackr.live / text

‹ back to catalog

STARLINK-31439

NORAD 59178 · 2024-045A

PAYLOAD ACTIVE UNKNOWN

§ Identity

Operator
Country
US
Launch date
2024-03-10
Launch site
AFETR
Launch vehicle
Mass (kg)
RCS (m²)

Purposes: comms

External: N2YO · Heavens-Above · Gunter

§ Orbital elements

Epoch: 2026-09-20T21:28:52.313088Z

Period
94.27 min
Inclination
43.0027°
Eccentricity
0.0000994
Mean motion
15.27591772 rev/d
Perigee alt
482.3 km
Apogee alt
483.7 km
Semi-major
6,861.2 km
B*
9.7013e-5
RAAN
66.8310°
Arg perigee
286.8473°
Mean anomaly
73.2270°
Rev number
7,938

§ Raw data

STARLINK-314391 59178U 24045A   26263.89504992  .00002409  00000+0  97013-4 0  99982 59178  43.0027  66.8310 0000994 286.8473  73.2270 15.27591772 79386

JSON: /api/v1/satellites/59178 · /tle

For live sub-satellite position, see the globe view (requires WebGL).

§ Visibility from observer

Set your observer location to see the next 7 days of passes ≥ 10°. The values pass through the URL so the page stays shareable.

No JS? Fill the form by hand. The geolocation button needs JavaScript.